COSMOS 1536

Last updated on Sun Jan 18 2026 00:02:12 GMT+0000 (Coordinated Universal Time)

1 14699U 84013A 26017.42219093 .00006007 00000+0 25306-3 0 9992 2 14699 82.5463 158.7646 0015739 102.4298 257.8701 15.23031844264819
UTC large
Height (km)
Speed (km/s)
/
Latitude / Longitude
Inclination (degrees)
Orbital Period (minutes)
Azimuth
Elevation
Range (km)
Doppler Factor

Next 0 passes for location: London (51.5072 / 0.1276)

Sorry there are no passes over London.